Flag for Sweden Weather past 2 weeks in Örebro, Sweden

Now
81 °F

Sunny.


Feels Like: 80 °F
Forecast: 61 / 85 °F
Wind: 3 mph from East

Location: Orebro Private

Current Time: Jul 23, 2014 at 9:01:11 PM

Latest Report: Jul 23, 2014 at 8:20 PM


Visibility: 10 mi

Pressure: 30.21 "Hg

Humidity: 37%

Dew point: 52 °F

Location of ÖrebroLocation

Historic Weather in Örebro — Graph

°F

Örebro temperature yesterday

Maximum temperature yesterday: 84 °F (at 4:50 PM)
Minimum temperature yesterday: 59 °F (at 3:20 AM)
Average temperature yesterday: 72 °F

Past Weeks' High & Low Weather Summary

 TemperatureHumidityPressure
High84 °F (Jul 10, 3:50 PM)100% (Jul 10, 4:20 AM)30.30 "Hg (Jul 10, 4:20 AM)
Low48 °F (Jul 12, 4:20 AM)29% (Jul 23, 3:50 PM)29.65 "Hg (Jul 13, 3:20 PM)
Average67 °F73%30.03 "Hg
* Reported Jul 8 7:20 PM — Jul 23 7:50 PM, Örebro, Weather by CustomWeather, © 2014

Note: Actual official high and low records may vary slightly from our data, if they occured in-between our weather recording intervals... More about our weather records

Advertising

Örebro weather history for previous 24 hours

 ConditionsComfort  
Time TempWeatherWind HumidityBarometerVisibility
7:50 PM
Jul 23
82 °FSunny.5 mph32%30.21 "Hg10 mi
7:20 PM82 °FSunny.6 mph30%30.21 "Hg10 mi
6:50 PM84 °FPassing clouds.5 mph29%30.21 "HgN/A
6:20 PM84 °FSunny.7 mph29%30.21 "Hg10 mi
5:50 PM84 °FSunny.9 mph29%30.24 "Hg10 mi
5:20 PM84 °FPassing clouds.6 mph29%30.24 "HgN/A
4:50 PM84 °FPassing clouds.9 mph29%30.24 "HgN/A
4:20 PM84 °FPassing clouds.8 mph31%30.24 "HgN/A
3:50 PM84 °FSunny.8 mph29%30.24 "Hg10 mi
3:20 PM84 °FPassing clouds.8 mph33%30.27 "HgN/A
2:20 PM82 °FPassing clouds.7 mph35%30.27 "HgN/A
1:20 PM82 °FPleasantly warm.9 mph40%30.27 "HgN/A
12:50 PM81 °FWarm.7 mph45%30.30 "HgN/A
12:20 PM82 °FWarm.7 mph45%30.30 "HgN/A
11:20 AM81 °FWarm.8 mph45%30.30 "HgN/A
7:50 AM68 °FSunny.7 mph73%30.30 "Hg10 mi
7:20 AM66 °FSunny.7 mph78%30.30 "Hg10 mi
6:50 AM64 °FSunny.7 mph83%30.30 "Hg10 mi
6:20 AM63 °FSunny.6 mph88%30.30 "Hg10 mi
5:50 AM57 °FSunny.5 mph94%30.30 "Hg10 mi
5:20 AM55 °FClear.3 mph100%30.30 "Hg10 mi
4:50 AM57 °FFog.3 mph94%30.30 "Hg3 mi
4:20 AM57 °FFog.3 mph94%30.30 "Hg2 mi
3:50 AM57 °FCool.3 mph94%30.30 "HgN/A
3:20 AM57 °FCool.No wind94%30.30 "HgN/A
2:50 AM59 °FCool.5 mph94%30.30 "HgN/A
1:50 AM61 °FClear.5 mph94%30.30 "Hg10 mi
Weather by CustomWeather, © 2014

See weather overviewHow to use our weather pages